Canby, MN

8:29 PM CST on February 07, 2016 (GMT -0600)
Canby

Weather History for KCNB - June, 2013

Change the Weather History Date:

Sunday, June 23, 2013

  Actual Average (KMML) Record (KMML)
Temperature  
Mean Temperature 69 °F -  
Max Temperature 77 °F 80 °F 95 °F (2005)
Min Temperature 61 °F 58 °F 44 °F (2011)
Cooling Degree Days 4    
Growing Degree Days 19 (Base 50)    
Moisture  
Dew Point 62 °F    
Average Humidity 78    
Maximum Humidity 97    
Minimum Humidity 54    
Precipitation  
Precipitation 1.23 in - - ()
Sea Level Pressure  
Sea Level Pressure 29.80 in    
Wind  
Wind Speed 11 mph (WSW)    
Max Wind Speed 31 mph    
Max Gust Speed 47 mph    
Visibility 9 miles    
Events Rain , Thunderstorm    
Averages and records for this station are not official NWS values.
T = Trace of Precipitation, MM = Missing Value Source: NWS Daily Summary

Daily Weather History Graph

Daily Weather History Graph

Search for Another Location

Airport or City:

Trip Planner

Search our weather history database for the weather conditions in past years. The results will help you decide how hot, cold, wet, or windy it might be!

Date:

Astronomy

Jun. 23, 2013 Rise Set
Actual Time 5:39 AM CDT 9:14 PM CDT
Civil Twilight 5:02 AM CDT 9:51 PM CDT
Nautical Twilight 4:13 AM CDT 10:41 PM CDT
Astronomical Twilight 3:08 AM CDT 11:45 PM CDT
Moon 9:23 PM CDT (6/23) 6:01 AM CDT (6/23)
Length of Visible Light 16h 48m
Length of Day
15h 34m
Full, 100% of the Moon is Illuminated
Jun 23
Full
Jun 29
Last Quarter
Jul 8
New
Jul 15
First Quarter
Jul 22
Full

Hourly Weather History & Observations

Time (CDT) Temp. Dew Point Humidity Pressure Visibility Wind Dir Wind Speed Gust Speed Precip Events Conditions
12:15 AM 72.1 °F 69.8 °F 92% 29.76 in 10.0 mi SE 9.2 mph - N/A   Mostly Cloudy
12:35 AM 71.6 °F 68.5 °F 90% 29.74 in 10.0 mi SSE 11.5 mph - N/A Thunderstorm Scattered Clouds
12:55 AM 70.7 °F 66.4 °F 86% 29.78 in 10.0 mi WSW 8.1 mph - N/A Rain Light Rain
1:15 AM 69.8 °F 65.8 °F 87% 29.74 in 10.0 mi SSE 13.8 mph - N/A Rain , Thunderstorm Light Thunderstorms and Rain
1:34 AM 67.6 °F 62.4 °F 83% 29.73 in 10.0 mi SSE 5.8 mph - N/A Rain , Thunderstorm Light Thunderstorms and Rain
1:55 AM 66.6 °F 62.6 °F 87% 29.78 in 2.5 mi WSW 6.9 mph - 0.13 in Rain , Thunderstorm Heavy Thunderstorms and Rain
2:15 AM 64.9 °F 61.9 °F 90% 29.71 in 4.0 mi East 13.8 mph - 0.13 in Rain , Thunderstorm Thunderstorms and Rain
2:34 AM 64.4 °F 62.2 °F 93% 29.66 in 4.0 mi East 16.1 mph 21.9 mph 0.27 in Rain , Thunderstorm Light Thunderstorms and Rain
2:55 AM 63.7 °F 62.1 °F 94% 29.81 in 2.0 mi WNW 31.1 mph 47.2 mph 0.54 in Rain , Thunderstorm Heavy Thunderstorms and Rain
3:15 AM 63.5 °F 62.6 °F 97% 29.71 in 1.5 mi ENE 11.5 mph 21.9 mph 0.31 in Rain , Thunderstorm Heavy Thunderstorms and Rain
3:35 AM 63.5 °F 62.6 °F 97% 29.72 in 7.0 mi East 6.9 mph - 0.40 in Rain , Thunderstorm Rain
3:54 AM 63.5 °F 62.6 °F 97% 29.76 in 5.0 mi West 9.2 mph - 0.44 in Rain , Thunderstorm Heavy Thunderstorms and Rain
4:14 AM 63.5 °F 62.6 °F 97% 29.80 in 5.0 mi West 15.0 mph - 0.07 in Rain , Thunderstorm Thunderstorms and Rain
4:34 AM 63.5 °F 62.2 °F 96% 29.69 in 7.0 mi Calm Calm - 0.11 in Rain Rain
4:55 AM 63.5 °F 61.9 °F 94% 29.72 in 10.0 mi SE 3.5 mph - 0.11 in   Scattered Clouds
5:15 AM 62.8 °F 61.7 °F 96% 29.71 in 7.0 mi Calm Calm - N/A   Clear
5:34 AM 62.4 °F 61.3 °F 96% 29.67 in 7.0 mi Calm Calm - N/A   Clear
5:55 AM 61.9 °F 61.0 °F 97% 29.66 in 5.0 mi SE 4.6 mph - N/A   Clear
6:15 AM 62.6 °F 61.9 °F 97% 29.71 in 5.0 mi South 4.6 mph - N/A   Clear
6:35 AM 62.8 °F 61.9 °F 97% 29.73 in 10.0 mi SW 4.6 mph - N/A   Clear
6:55 AM 63.5 °F 61.9 °F 94% 29.75 in 10.0 mi Calm Calm - N/A   Clear
7:15 AM 63.7 °F 61.7 °F 93% 29.74 in 10.0 mi Calm Calm - N/A   Clear
7:34 AM 64.4 °F 62.4 °F 93% 29.76 in 10.0 mi WSW 4.6 mph - N/A   Clear
7:55 AM 64.8 °F 61.9 °F 90% 29.76 in 10.0 mi WSW 12.7 mph 17.3 mph N/A   Clear
8:15 AM 65.3 °F 62.1 °F 89% 29.76 in 10.0 mi West 10.4 mph - N/A   Clear
8:35 AM 66.7 °F 62.8 °F 87% 29.77 in 10.0 mi WSW 16.1 mph 20.7 mph N/A   Clear
8:54 AM 67.1 °F 62.8 °F 86% 29.78 in 10.0 mi West 20.7 mph 31.1 mph N/A   Clear
9:15 AM 67.1 °F 61.3 °F 82% 29.77 in 10.0 mi West 19.6 mph 26.5 mph N/A   Clear
9:35 AM 68.0 °F 61.5 °F 80% 29.76 in 10.0 mi WSW 17.3 mph 24.2 mph N/A   Clear
9:55 AM 68.0 °F 61.5 °F 80% 29.77 in 10.0 mi West 17.3 mph 23.0 mph N/A   Clear
10:14 AM 68.5 °F 62.1 °F 80% 29.78 in 10.0 mi West 17.3 mph 21.9 mph N/A   Scattered Clouds
10:35 AM 68.9 °F 61.9 °F 78% 29.78 in 10.0 mi WSW 15.0 mph 23.0 mph N/A   Scattered Clouds
10:55 AM 69.8 °F 62.2 °F 77% 29.78 in 10.0 mi WSW 16.1 mph 23.0 mph N/A   Clear
11:15 AM 71.1 °F 63.5 °F 77% 29.78 in 10.0 mi WSW 11.5 mph 17.3 mph N/A   Clear
11:35 AM 71.2 °F 62.4 °F 74% 29.78 in 10.0 mi WSW 16.1 mph 21.9 mph N/A   Clear
11:54 AM 72.5 °F 63.3 °F 73% 29.78 in 10.0 mi WSW 19.6 mph 25.3 mph N/A   Clear
12:15 PM 72.9 °F 64.6 °F 75% 29.79 in 10.0 mi West 17.3 mph 25.3 mph N/A   Clear
12:35 PM 73.0 °F 64.2 °F 74% 29.80 in 10.0 mi West 18.4 mph 25.3 mph N/A   Clear
12:55 PM 72.7 °F 63.7 °F 73% 29.81 in 10.0 mi West 15.0 mph 23.0 mph 0.01 in   Clear
1:14 PM 73.4 °F 64.0 °F 72% 29.82 in 10.0 mi West 11.5 mph 17.3 mph N/A   Clear
1:35 PM 74.3 °F 64.0 °F 70% 29.82 in 10.0 mi WSW 11.5 mph - N/A   Clear
1:55 PM 74.8 °F 63.9 °F 69% 29.83 in 10.0 mi WSW 13.8 mph 20.7 mph N/A   Clear
2:15 PM 75.2 °F 64.4 °F 69% 29.83 in 10.0 mi West 11.5 mph - N/A   Clear
2:35 PM 75.4 °F 64.0 °F 68% 29.83 in 10.0 mi West 18.4 mph - N/A   Clear
2:55 PM 75.7 °F 63.3 °F 65% 29.82 in 10.0 mi WSW 19.6 mph 23.0 mph N/A   Clear
3:14 PM 76.1 °F 63.0 °F 64% 29.82 in 10.0 mi West 17.3 mph 21.9 mph N/A   Clear
3:35 PM 76.8 °F 63.0 °F 62% 29.82 in 10.0 mi WSW 11.5 mph - N/A   Clear
3:54 PM 77.0 °F 61.0 °F 58% 29.82 in 10.0 mi WSW 15.0 mph 18.4 mph N/A   Clear
4:15 PM 77.2 °F 61.9 °F 59% 29.83 in 10.0 mi SW 10.4 mph - N/A   Clear
4:35 PM 77.2 °F 61.9 °F 59% 29.83 in 10.0 mi West 13.8 mph 18.4 mph N/A   Clear
4:55 PM 77.0 °F 61.0 °F 58% 29.83 in 10.0 mi WSW 13.8 mph 19.6 mph N/A   Clear
5:15 PM 77.2 °F 60.3 °F 56% 29.83 in 10.0 mi West 11.5 mph 18.4 mph N/A   Clear
5:34 PM 77.4 °F 60.1 °F 55% 29.84 in 10.0 mi WSW 13.8 mph - N/A   Clear
5:55 PM 77.2 °F 59.2 °F 54% 29.85 in 10.0 mi WSW 13.8 mph 19.6 mph N/A   Clear
6:15 PM 77.0 °F 60.4 °F 56% 29.84 in 10.0 mi West 13.8 mph 19.6 mph N/A   Clear
6:35 PM 76.5 °F 59.9 °F 56% 29.85 in 10.0 mi West 11.5 mph 19.6 mph N/A   Clear
6:54 PM 76.1 °F 59.7 °F 57% 29.85 in 10.0 mi West 11.5 mph 17.3 mph N/A   Clear
7:15 PM 75.7 °F 59.5 °F 57% 29.85 in 10.0 mi West 12.7 mph - N/A   Clear
7:35 PM 75.4 °F 61.0 °F 61% 29.86 in 10.0 mi West 10.4 mph - N/A   Clear
7:55 PM 74.7 °F 61.2 °F 63% 29.86 in 10.0 mi West 6.9 mph - N/A   Clear
8:14 PM 73.9 °F 61.9 °F 66% 29.86 in 10.0 mi West 6.9 mph - N/A   Clear
8:35 PM 72.9 °F 61.7 °F 68% 29.86 in 10.0 mi West 5.8 mph - N/A   Clear
8:55 PM 71.8 °F 61.7 °F 70% 29.86 in 10.0 mi WSW 4.6 mph - N/A   Clear
9:15 PM 70.0 °F 61.9 °F 75% 29.86 in 10.0 mi WSW 4.6 mph - N/A   Clear
9:35 PM 69.1 °F 61.9 °F 78% 29.87 in 10.0 mi WSW 4.6 mph - N/A   Clear
9:54 PM 68.5 °F 61.7 °F 79% 29.87 in 10.0 mi WSW 4.6 mph - N/A   Clear
10:15 PM 67.8 °F 61.7 °F 81% 29.87 in 10.0 mi West 5.8 mph - N/A   Clear
10:35 PM 68.0 °F 61.7 °F 80% 29.88 in 10.0 mi WSW 3.5 mph - N/A   Clear
10:55 PM 67.6 °F 61.3 °F 80% 29.88 in 10.0 mi Calm Calm - N/A   Clear
11:14 PM 67.5 °F 61.0 °F 80% 29.89 in 10.0 mi SSW 3.5 mph - N/A   Clear
11:35 PM 67.1 °F 61.0 °F 81% 29.89 in 10.0 mi SW 3.5 mph - N/A   Clear
11:55 PM 65.8 °F 60.8 °F 84% 29.90 in 10.0 mi SW 3.5 mph - N/A   Clear